Home > Weather > Jaipur > Past weeks

Flag for India Past Weather in Jaipur, Rajasthan, India — Yesterday and Last 2 Weeks

Now
95 °F

Broken clouds.


Feels Like: 103 °F
Forecast: 81 / 94 °F
Wind: 8 mph from Southeast

Location: Jaipur / Sanganer

Current Time: Jul 23, 2016 at 4:46:01 PM

Latest Report: Jul 23, 2016 at 4:00 PM


Visibility: 4 mi

Pressure: 29.56 "Hg

Humidity: 47%

Dew Point: 72 °F

Location of JaipurLocation

Past Weather in Jaipur — Graph

°F

Jaipur Temperature Yesterday

Maximum temperature yesterday: 97 °F (at 4:00 PM)
Minimum temperature yesterday: 82 °F (at 5:00 AM)
Average temperature yesterday: 89 °F

High & Low Weather Summary for the Past Weeks

 TemperatureHumidityPressure
High99 °F (Jul 8, 3:00 PM)100% (Jul 15, 11:00 AM)29.71 "Hg (Jul 15, 11:00 AM)
Low75 °F (Jul 16, 2:00 PM)39% (Jul 23, 2:00 PM)29.42 "Hg (Jul 9, 4:00 PM)
Average86 °F73%29.59 "Hg
* Reported Jul 8 2:30 PM — Jul 23 2:30 PM, Jaipur, Weather by CustomWeather, © 2016

Note: Actual official high and low records may vary slightly from our data, if they occured in-between our weather recording intervals... More about our weather records

Advertising

Jaipur Weather History for the Previous 24 Hours

Scroll right to see more
 ConditionsComfort  
Time TempWeatherWind HumidityBarometerVisibility
2:30 PM
Sat, Jul 23
97 °FBroken clouds.7 mph42%29.59 "Hg4 mi
2:00 PM97 °FScattered clouds.6 mph39%29.62 "Hg4 mi
1:30 PM97 °FScattered clouds.6 mph42%29.62 "Hg4 mi
1:00 PM95 °FScattered clouds.3 mph44%29.62 "Hg4 mi
12:00 PM93 °FScattered clouds.5 mph47%29.65 "Hg4 mi
11:30 AM93 °FScattered clouds.5 mph49%29.65 "Hg4 mi
11:00 AM91 °FPassing clouds.7 mph49%29.65 "Hg4 mi
10:00 AM90 °FPassing clouds.9 mph52%29.68 "Hg4 mi
9:00 AM88 °FPassing clouds.8 mph55%29.65 "Hg4 mi
8:30 AM88 °FHaze.8 mph59%29.65 "Hg3 mi
7:30 AM86 °FScattered clouds.7 mph62%29.65 "Hg3 mi
7:00 AM86 °FScattered clouds.2 mph70%29.62 "Hg3 mi
6:30 AM84 °FScattered clouds.1 mph74%29.62 "Hg3 mi
6:00 AM84 °FPassing clouds.No wind74%29.62 "Hg3 mi
5:30 AM86 °FPassing clouds.1 mph70%29.62 "Hg3 mi
5:00 AM84 °FPassing clouds.1 mph74%29.59 "Hg3 mi
4:30 AM86 °FPassing clouds.2 mph66%29.59 "Hg3 mi
4:00 AM86 °FPassing clouds.5 mph66%29.59 "Hg3 mi
3:00 AM86 °FPassing clouds.5 mph66%29.59 "Hg3 mi
2:30 AM88 °FPassing clouds.6 mph62%29.59 "Hg3 mi
2:00 AM88 °FPassing clouds.5 mph62%29.59 "Hg3 mi
1:00 AM88 °FPassing clouds.5 mph62%29.62 "Hg3 mi
12:00 AM90 °FPassing clouds.5 mph59%29.62 "Hg3 mi
10:30 PM
Fri, Jul 22
91 °FPassing clouds.5 mph52%29.59 "Hg4 mi
9:30 PM93 °FPassing clouds.6 mph47%29.59 "Hg4 mi
9:00 PM93 °FPassing clouds.6 mph47%29.56 "Hg4 mi
8:30 PM93 °FPassing clouds.7 mph47%29.56 "Hg4 mi
8:00 PM95 °FPassing clouds.6 mph44%29.56 "Hg4 mi
7:00 PM95 °FScattered clouds.8 mph44%29.56 "Hg4 mi
4:00 PM97 °FScattered clouds.6 mph42%29.56 "Hg4 mi
Weather by CustomWeather, © 2016

See weather overviewHow to use our weather pages